Time,TemperatureF,DewpointF,PressureIn,WindDirection,WindDirectionDegrees,WindSpeedMPH,WindSpeedGustMPH,Humidity,HourlyPrecipIn,Conditions,Clouds,dailyrainin,SoftwareType,DateUTC
2013-05-31 00:13:00,57.0,56.0,30.00,SW,214,1.0,2.0,96,0.00,,,0.00,weatherlink.com 1.10,2013-05-31 04:13:00,
2013-05-31 00:28:00,56.9,56.0,30.00,SW,214,0.0,1.0,96,0.00,,,0.00,weatherlink.com 1.10,2013-05-31 04:28:00,
2013-05-31 00:43:00,57.0,56.0,30.01,SSW,212,0.0,0.0,97,0.00,,,0.00,weatherlink.com 1.10,2013-05-31 04:43:00,
2013-05-31 00:58:00,56.6,56.0,30.01,SSW,213,0.0,1.0,96,0.00,,,0.00,weatherlink.com 1.10,2013-05-31 04:58:00,
2013-05-31 01:13:00,56.4,55.0,30.01,South,174,0.0,2.0,96,0.00,,,0.00,weatherlink.com 1.10,2013-05-31 05:13:00,
2013-05-31 01:28:00,56.2,55.0,30.01,SSW,193,0.0,1.0,97,0.00,,,0.00,weatherlink.com 1.10,2013-05-31 05:28:00,
2013-05-31 01:43:00,56.1,55.0,30.01,SSW,193,0.0,1.0,96,0.00,,,0.00,weatherlink.com 1.10,2013-05-31 05:43:00,
2013-05-31 01:58:00,56.0,55.0,30.00,SSW,210,0.0,2.0,97,0.00,,,0.00,weatherlink.com 1.10,2013-05-31 05:58:00,
2013-05-31 02:13:00,55.9,55.0,30.00,SSW,210,0.0,1.0,97,0.00,,,0.00,weatherlink.com 1.10,2013-05-31 06:13:00,
2013-05-31 02:28:00,55.4,55.0,30.00,SSW,210,0.0,1.0,97,0.00,,,0.00,weatherlink.com 1.10,2013-05-31 06:28:00,
2013-05-31 02:43:00,55.3,55.0,30.00,SSW,210,0.0,1.0,97,0.00,,,0.00,weatherlink.com 1.10,2013-05-31 06:43:00,
2013-05-31 02:58:00,55.3,55.0,30.00,SSW,210,0.0,1.0,97,0.00,,,0.00,weatherlink.com 1.10,2013-05-31 06:58:00,
2013-05-31 03:13:00,54.9,54.0,30.00,SSW,210,0.0,1.0,97,0.00,,,0.00,weatherlink.com 1.10,2013-05-31 07:13:00,
2013-05-31 03:28:00,54.8,54.0,29.99,SSW,210,0.0,1.0,97,0.00,,,0.00,weatherlink.com 1.10,2013-05-31 07:28:00,
2013-05-31 03:43:00,55.4,55.0,30.00,SSW,210,0.0,0.0,98,0.00,,,0.00,weatherlink.com 1.10,2013-05-31 07:43:00,
2013-05-31 03:58:00,54.5,54.0,30.00,SSW,210,0.0,1.0,97,0.00,,,0.00,weatherlink.com 1.10,2013-05-31 07:58:00,
2013-05-31 04:13:00,54.4,54.0,30.01,SSW,210,0.0,1.0,97,0.00,,,0.00,weatherlink.com 1.10,2013-05-31 08:13:00,
2013-05-31 04:28:00,54.2,53.0,30.01,SSW,210,0.0,1.0,97,0.00,,,0.00,weatherlink.com 1.10,2013-05-31 08:28:00,
2013-05-31 04:43:00,54.1,53.0,30.01,SSW,208,0.0,1.0,97,0.00,,,0.00,weatherlink.com 1.10,2013-05-31 08:43:00,
2013-05-31 04:58:00,54.2,53.0,30.01,SSW,208,0.0,0.0,97,0.00,,,0.00,weatherlink.com 1.10,2013-05-31 08:58:00,
2013-05-31 05:13:00,53.9,53.0,30.01,SSW,208,1.0,1.0,98,0.00,,,0.00,weatherlink.com 1.10,2013-05-31 09:13:00,
2013-05-31 05:28:00,54.0,53.0,30.01,SSW,208,0.0,1.0,97,0.00,,,0.00,weatherlink.com 1.10,2013-05-31 09:28:00,
2013-05-31 05:43:00,54.6,54.0,30.01,SSW,209,0.0,1.0,97,0.00,,,0.00,weatherlink.com 1.10,2013-05-31 09:43:00,
2013-05-31 05:58:00,55.6,55.0,30.01,SSW,208,0.0,1.0,97,0.00,,,0.00,weatherlink.com 1.10,2013-05-31 09:58:00,
2013-05-31 06:13:00,56.8,56.0,30.01,SSW,208,0.0,0.0,97,0.00,,,0.00,weatherlink.com 1.10,2013-05-31 10:13:00,
2013-05-31 06:28:00,57.6,57.0,30.01,SSW,208,0.0,1.0,97,0.00,,,0.00,weatherlink.com 1.10,2013-05-31 10:28:00,
2013-05-31 06:43:00,59.0,58.0,30.02,SSW,208,0.0,0.0,96,0.00,,,0.00,weatherlink.com 1.10,2013-05-31 10:43:00,
2013-05-31 06:58:00,59.4,58.0,30.02,SSW,194,0.0,1.0,94,0.00,,,0.00,weatherlink.com 1.10,2013-05-31 10:58:00,
2013-05-31 07:13:00,62.6,60.0,30.03,SSW,193,1.0,1.0,92,0.00,,,0.00,weatherlink.com 1.10,2013-05-31 11:13:00,
2013-05-31 07:28:00,61.3,59.0,30.02,SSE,166,0.0,1.0,93,0.00,,,0.00,weatherlink.com 1.10,2013-05-31 11:28:00,
2013-05-31 07:43:00,62.9,60.0,30.02,SSE,153,1.0,2.0,91,0.00,,,0.00,weatherlink.com 1.10,2013-05-31 11:43:00,
2013-05-31 07:58:00,63.8,61.0,30.02,SSE,163,1.0,2.0,89,0.00,,,0.00,weatherlink.com 1.10,2013-05-31 11:58:00,
2013-05-31 08:14:00,67.4,64.0,30.02,SSE,165,0.0,1.0,87,0.00,,,0.00,weatherlink.com 1.10,2013-05-31 12:14:00,
2013-05-31 08:29:00,67.2,62.0,30.02,SE,144,2.0,5.0,84,0.00,,,0.00,weatherlink.com 1.10,2013-05-31 12:29:00,
2013-05-31 08:44:00,66.1,62.0,30.01,SSE,149,0.0,-999.0,86,-99.99,,,0.00,weatherlink.com 1.10,2013-05-31 12:44:00,
2013-05-31 08:59:00,66.9,62.0,30.00,SSE,158,1.0,4.0,85,0.00,,,0.00,weatherlink.com 1.10,2013-05-31 12:59:00,
2013-05-31 09:14:00,69.9,64.0,30.00,SE,134,5.0,5.0,80,0.00,,,0.00,weatherlink.com 1.10,2013-05-31 13:14:00,
2013-05-31 09:29:00,68.3,63.0,30.00,SE,146,2.0,4.0,84,0.00,,,0.00,weatherlink.com 1.10,2013-05-31 13:29:00,
2013-05-31 09:44:00,68.6,62.0,30.00,SE,127,5.0,8.0,79,0.00,,,0.00,weatherlink.com 1.10,2013-05-31 13:44:00,
2013-05-31 09:59:00,72.2,63.0,29.99,SE,139,7.0,9.0,73,0.00,,,0.00,weatherlink.com 1.10,2013-05-31 13:59:00,
2013-05-31 10:14:00,70.8,63.0,30.00,SE,135,4.0,7.0,75,0.00,,,0.00,weatherlink.com 1.10,2013-05-31 14:14:00,
2013-05-31 10:29:00,71.1,62.0,29.99,SE,142,3.0,9.0,72,0.00,,,0.00,weatherlink.com 1.10,2013-05-31 14:29:00,
2013-05-31 10:44:00,70.4,63.0,29.99,SE,136,5.0,8.0,76,0.00,,,0.00,weatherlink.com 1.10,2013-05-31 14:44:00,
2013-05-31 10:59:00,71.8,63.0,29.98,SE,135,6.0,7.0,73,0.00,,,0.00,weatherlink.com 1.10,2013-05-31 14:59:00,
2013-05-31 11:14:00,72.0,62.0,29.98,SE,142,9.0,11.0,70,0.00,,,0.00,weatherlink.com 1.10,2013-05-31 15:14:00,
2013-05-31 11:29:00,70.3,62.0,29.98,SE,133,6.0,9.0,74,0.00,,,0.00,weatherlink.com 1.10,2013-05-31 15:29:00,
2013-05-31 11:44:00,72.4,63.0,29.97,SE,132,9.0,11.0,71,0.00,,,0.00,weatherlink.com 1.10,2013-05-31 15:44:00,
2013-05-31 11:59:00,71.0,62.0,29.96,SE,136,9.0,12.0,73,0.00,,,0.00,weatherlink.com 1.10,2013-05-31 15:59:00,
2013-05-31 12:14:00,69.3,61.0,29.96,SE,131,11.0,13.0,76,0.00,,,0.00,weatherlink.com 1.10,2013-05-31 16:14:00,
2013-05-31 12:29:00,66.4,60.0,29.95,SSE,148,10.0,14.0,81,0.00,,,0.00,weatherlink.com 1.10,2013-05-31 16:29:00,
2013-05-31 12:44:00,66.8,60.0,29.95,SE,136,8.0,15.0,79,0.00,,,0.00,weatherlink.com 1.10,2013-05-31 16:44:00,
2013-05-31 12:59:00,70.6,63.0,29.95,SE,146,1.0,12.0,77,0.00,,,0.00,weatherlink.com 1.10,2013-05-31 16:59:00,
2013-05-31 13:14:00,71.7,62.0,29.94,SE,139,8.0,12.0,72,0.00,,,0.00,weatherlink.com 1.10,2013-05-31 17:14:00,
2013-05-31 13:29:00,69.5,62.0,29.94,SE,136,12.0,15.0,78,0.00,,,0.00,weatherlink.com 1.10,2013-05-31 17:29:00,
2013-05-31 13:44:00,72.5,64.0,29.93,SE,138,10.0,12.0,74,0.00,,,0.00,weatherlink.com 1.10,2013-05-31 17:44:00,
2013-05-31 13:59:00,69.2,61.0,29.93,SE,139,12.0,15.0,75,0.00,,,0.00,weatherlink.com 1.10,2013-05-31 17:59:00,
2013-05-31 14:14:00,68.8,62.0,29.93,SE,139,9.0,13.0,78,0.00,,,0.00,weatherlink.com 1.10,2013-05-31 18:14:00,
2013-05-31 14:29:00,69.3,63.0,29.92,SE,132,10.0,13.0,79,0.00,,,0.00,weatherlink.com 1.10,2013-05-31 18:29:00,
2013-05-31 14:44:00,70.9,62.0,29.92,SE,139,10.0,12.0,74,0.00,,,0.00,weatherlink.com 1.10,2013-05-31 18:44:00,
2013-05-31 14:59:00,70.3,62.0,29.91,SE,143,8.0,12.0,75,0.00,,,0.00,weatherlink.com 1.10,2013-05-31 18:59:00,
2013-05-31 15:14:00,69.4,61.0,29.91,SSE,150,8.0,14.0,75,0.00,,,0.00,weatherlink.com 1.10,2013-05-31 19:14:00,
2013-05-31 15:29:00,69.0,60.0,29.90,SE,141,8.0,13.0,73,0.00,,,0.00,weatherlink.com 1.10,2013-05-31 19:29:00,
2013-05-31 15:44:00,69.0,62.0,29.90,SE,138,9.0,13.0,77,0.00,,,0.00,weatherlink.com 1.10,2013-05-31 19:44:00,
2013-05-31 15:59:00,68.5,61.0,29.90,SE,141,8.0,11.0,76,0.00,,,0.00,weatherlink.com 1.10,2013-05-31 19:59:00,
2013-05-31 16:14:00,71.2,61.0,29.89,SE,140,5.0,11.0,70,0.00,,,0.00,weatherlink.com 1.10,2013-05-31 20:14:00,
2013-05-31 16:30:00,72.3,63.0,29.89,SE,133,7.0,10.0,72,0.00,,,0.00,weatherlink.com 1.10,2013-05-31 20:30:00,
2013-05-31 16:45:00,71.2,62.0,29.88,SE,139,7.0,11.0,72,0.00,,,0.00,weatherlink.com 1.10,2013-05-31 20:45:00,
2013-05-31 17:00:00,70.7,62.0,29.88,SE,139,7.0,11.0,73,0.00,,,0.00,weatherlink.com 1.10,2013-05-31 21:00:00,
2013-05-31 17:15:00,69.7,61.0,29.87,SE,139,7.0,11.0,74,0.00,,,0.00,weatherlink.com 1.10,2013-05-31 21:15:00,
2013-05-31 17:30:00,70.3,62.0,29.87,SE,143,8.0,9.0,75,0.00,,,0.00,weatherlink.com 1.10,2013-05-31 21:30:00,
2013-05-31 17:45:00,70.2,61.0,29.87,SE,139,4.0,9.0,72,0.00,,,0.00,weatherlink.com 1.10,2013-05-31 21:45:00,
2013-05-31 18:00:00,69.3,61.0,29.86,SSE,150,4.0,9.0,76,0.00,,,0.00,weatherlink.com 1.10,2013-05-31 22:00:00,
2013-05-31 18:15:00,69.0,61.0,29.87,SE,142,6.0,9.0,76,0.00,,,0.00,weatherlink.com 1.10,2013-05-31 22:15:00,
2013-05-31 18:30:00,68.1,61.0,29.87,SSE,155,6.0,9.0,77,0.00,,,0.00,weatherlink.com 1.10,2013-05-31 22:30:00,
2013-05-31 18:45:00,68.8,61.0,29.87,SE,133,7.0,11.0,77,0.00,,,0.00,weatherlink.com 1.10,2013-05-31 22:45:00,
2013-05-31 19:00:00,70.3,62.0,29.87,SE,132,4.0,10.0,75,0.00,,,0.00,weatherlink.com 1.10,2013-05-31 23:00:00,
2013-05-31 19:15:00,71.7,63.0,29.87,SSW,211,2.0,6.0,74,0.00,,,0.00,weatherlink.com 1.10,2013-05-31 23:15:00,
2013-05-31 19:30:00,71.6,63.0,29.88,ESE,122,3.0,3.0,74,0.00,,,0.00,weatherlink.com 1.10,2013-05-31 23:30:00,
2013-05-31 19:45:00,72.4,63.0,29.87,ESE,116,3.0,4.0,73,0.00,,,0.00,weatherlink.com 1.10,2013-05-31 23:45:00,
2013-05-31 20:00:00,72.0,63.0,29.86,SSE,167,1.0,2.0,73,0.00,,,0.00,weatherlink.com 1.10,2013-06-01 00:00:00,
2013-05-31 20:15:00,71.5,63.0,29.87,South,177,0.0,1.0,74,0.00,,,0.00,weatherlink.com 1.10,2013-06-01 00:15:00,
2013-05-31 20:30:00,71.0,63.0,29.87,South,177,0.0,1.0,77,0.00,,,0.00,weatherlink.com 1.10,2013-06-01 00:30:00,
2013-05-31 20:45:00,69.5,62.0,29.87,South,177,0.0,1.0,78,0.00,,,0.00,weatherlink.com 1.10,2013-06-01 00:45:00,
2013-05-31 21:00:00,68.5,62.0,29.87,South,177,0.0,1.0,79,0.00,,,0.00,weatherlink.com 1.10,2013-06-01 01:00:00,
2013-05-31 21:15:00,68.0,62.0,29.87,South,179,0.0,0.0,81,0.00,,,0.00,weatherlink.com 1.10,2013-06-01 01:15:00,
2013-05-31 21:30:00,66.4,62.0,29.88,SSW,200,0.0,0.0,84,0.00,,,0.00,weatherlink.com 1.10,2013-06-01 01:30:00,
2013-05-31 21:45:00,65.8,61.0,29.88,SSW,199,0.0,0.0,84,0.00,,,0.00,weatherlink.com 1.10,2013-06-01 01:45:00,
2013-05-31 22:00:00,65.2,61.0,29.88,SSW,200,0.0,0.0,85,0.00,,,0.00,weatherlink.com 1.10,2013-06-01 02:00:00,
2013-05-31 22:16:00,63.9,59.0,29.88,SSW,198,0.0,1.0,85,0.00,,,0.00,weatherlink.com 1.10,2013-06-01 02:16:00,
2013-05-31 22:30:00,62.9,59.0,29.88,SSW,198,0.0,0.0,86,0.00,,,0.00,weatherlink.com 1.10,2013-06-01 02:30:00,
2013-05-31 22:45:00,62.3,58.0,29.88,SSE,150,2.0,2.0,87,0.00,,,0.00,weatherlink.com 1.10,2013-06-01 02:45:00,
2013-05-31 23:00:00,61.8,58.0,29.88,South,179,0.0,2.0,88,0.00,,,0.00,weatherlink.com 1.10,2013-06-01 03:00:00,
2013-05-31 23:15:00,61.3,58.0,29.88,South,185,0.0,1.0,88,0.00,,,0.00,weatherlink.com 1.10,2013-06-01 03:15:00,
2013-05-31 23:30:00,60.8,58.0,29.88,South,185,0.0,0.0,89,0.00,,,0.00,weatherlink.com 1.10,2013-06-01 03:30:00,
2013-05-31 23:45:00,60.5,58.0,29.88,South,185,0.0,0.0,90,0.00,,,0.00,weatherlink.com 1.10,2013-06-01 03:45:00,